Location: Recife
(8.0585°S, 34.8848°W)
Time: 06:42:47
(UTC-03:00)

Vanguard 3 - Pass Details

Date: 15 April 2026
Orbit: 507 x 3205 km, 33.4° (Epoch: 13 May)

Event Time Altitude Azimuth Distance (km) Brightness Sun altitude
Rises 12:45:50 0° 242° (WSW) 6,904 12.0 62.0°
Reaches altitude 10° 12:51:35 10° 231° (SW) 6,062 11.8 60.9°
Maximum altitude 13:07:25 29° 177° (S) 4,567 11.1 57.7°
Drops below altitude 10° 13:21:03 10° 123° (ESE) 5,243 11.0 54.8°
Sets 13:25:31 0° 111° (ESE) 5,882 11.2 53.8°
